Weather History for K2C8 - May, 2013

Change the Weather History Date:

Thursday, May 2, 2013

  Actual Average (KGAF) Record (KGAF)
Temperature  
Mean Temperature 32 °F -  
Max Temperature 35 °F 64 °F 90 °F (1980)
Min Temperature 28 °F 37 °F 16 °F (1967)
Degree Days  
Heating Degree Days 34    
Moisture  
Dew Point -    
Average Humidity    
Maximum Humidity    
Minimum Humidity    
Precipitation  
Precipitation 0.00 in - - ()
Sea Level Pressure  
Sea Level Pressure 30.65 in    
Wind  
Wind Speed 8 mph (North)    
Max Wind Speed 14 mph    
Max Gust Speed 18 mph    
Visibility 10 miles    
Events      
Averages and records for this station are not official NWS values.
T = Trace of Precipitation, MM = Missing Value Source: NWS Daily Summary

Daily Weather History Graph

Daily Weather History Graph

Search for Another Location

Airport or City:

Trip Planner

Search our weather history database for the weather conditions in past years. The results will help you decide how hot, cold, wet, or windy it might be!

Date:

Astronomy

May. 02, 2013 Rise Set
Actual Time 6:08 AM CDT 8:47 PM CDT
Civil Twilight 5:32 AM CDT 9:23 PM CDT
Nautical Twilight 4:47 AM CDT 10:09 PM CDT
Astronomical Twilight 3:53 AM CDT 11:03 PM CDT
Moon 2:33 AM CDT (5/2) 1:03 PM CDT (5/2)
Length of Visible Light 15h 51m
Length of Day
14h 39m
Waning Gibbous, 47% of the Moon is Illuminated
May 2
Waning Gibbous
May 9
New
May 17
First Quarter
May 24
Full
May 31
Last Quarter

Hourly Weather History & Observations

Time (CDT) Temp. Windchill Dew Point Humidity Pressure Visibility Wind Dir Wind Speed Gust Speed Precip Events Conditions
12:15 AM 32.0 °F 26.4 °F - N/A% 30.62 in 10.0 mi NNW 5.8 mph - N/A   Mostly Cloudy
12:35 AM 32.0 °F 24.2 °F - N/A% 30.63 in 10.0 mi North 9.2 mph - N/A   Overcast
12:55 AM 32.0 °F 24.2 °F - N/A% 30.63 in 10.0 mi North 9.2 mph - N/A   Overcast
1:15 AM 30.2 °F 21.9 °F - N/A% 30.64 in 10.0 mi North 9.2 mph - N/A   Overcast
1:35 AM 30.2 °F 21.9 °F - N/A% 30.64 in 10.0 mi North 9.2 mph - N/A   Overcast
1:55 AM 30.2 °F 22.6 °F - N/A% 30.64 in 10.0 mi North 8.1 mph - N/A   Overcast
2:15 AM 30.2 °F 23.4 °F - N/A% 30.64 in 10.0 mi North 6.9 mph - N/A   Overcast
2:35 AM 30.2 °F 21.9 °F - N/A% 30.64 in 10.0 mi North 9.2 mph - N/A   Overcast
2:55 AM 30.2 °F 21.9 °F - N/A% 30.64 in 10.0 mi North 9.2 mph - N/A   Overcast
3:15 AM 30.2 °F 22.6 °F - N/A% 30.65 in 10.0 mi NNE 8.1 mph - N/A   Overcast
3:35 AM 30.2 °F 21.3 °F - N/A% 30.65 in 10.0 mi North 10.4 mph - N/A   Overcast
3:55 AM 28.4 °F 21.2 °F - N/A% 30.65 in 10.0 mi North 6.9 mph - N/A   Overcast
4:15 AM 30.2 °F 21.9 °F - N/A% 30.65 in 10.0 mi North 9.2 mph - N/A   Overcast
4:35 AM 28.4 °F 19.7 °F - N/A% 30.65 in 10.0 mi NNW 9.2 mph - N/A   Overcast
4:55 AM 28.4 °F 19.7 °F - N/A% 30.66 in 10.0 mi North 9.2 mph - N/A   Overcast
5:15 AM 28.4 °F 21.2 °F - N/A% 30.67 in 10.0 mi North 6.9 mph - N/A   Overcast
5:35 AM 28.4 °F 19.7 °F - N/A% 30.68 in 10.0 mi North 9.2 mph - N/A   Overcast
5:55 AM 28.4 °F 19.7 °F - N/A% 30.68 in 10.0 mi NNW 9.2 mph - N/A   Overcast
6:15 AM 28.4 °F 18.0 °F - N/A% 30.68 in 10.0 mi North 12.7 mph - N/A   Overcast
6:35 AM 28.4 °F 17.5 °F - N/A% 30.68 in 10.0 mi NNW 13.8 mph - N/A   Overcast
6:55 AM 30.2 °F 20.8 °F - N/A% 30.69 in 10.0 mi NNW 11.5 mph - N/A   Overcast
7:15 AM 30.2 °F 20.8 °F - N/A% 30.70 in 10.0 mi NNW 11.5 mph 18.4 mph N/A   Overcast
7:35 AM 30.2 °F 20.8 °F - N/A% 30.70 in 10.0 mi North 11.5 mph - N/A   Overcast
7:55 AM 30.2 °F 22.6 °F - N/A% 30.70 in 10.0 mi North 8.1 mph - N/A   Overcast
8:15 AM 30.2 °F 21.3 °F - N/A% 30.70 in 10.0 mi NNE 10.4 mph - N/A   Overcast
8:35 AM 30.2 °F 21.9 °F - N/A% 30.71 in 10.0 mi North 9.2 mph - N/A   Overcast
8:55 AM 30.2 °F 21.9 °F - N/A% 30.71 in 10.0 mi North 9.2 mph - N/A   Overcast
9:15 AM 30.2 °F 21.9 °F - N/A% 30.72 in 10.0 mi North 9.2 mph - N/A   Overcast
9:35 AM 30.2 °F 21.9 °F - N/A% 30.72 in 10.0 mi NNW 9.2 mph - N/A   Overcast
9:55 AM 32.0 °F 24.2 °F - N/A% 30.72 in 10.0 mi North 9.2 mph - N/A   Overcast
10:15 AM 30.2 °F 20.8 °F - N/A% 30.72 in 10.0 mi NNW 11.5 mph - N/A   Overcast
10:35 AM 30.2 °F 21.9 °F - N/A% 30.72 in 10.0 mi NNW 9.2 mph - N/A   Overcast
10:55 AM 32.0 °F 23.0 °F - N/A% 30.72 in 10.0 mi NNW 11.5 mph - N/A   Overcast
11:15 AM 32.0 °F 22.5 °F - N/A% 30.71 in 10.0 mi North 12.7 mph - N/A   Overcast
11:35 AM 32.0 °F 22.5 °F - N/A% 30.71 in 10.0 mi NNW 12.7 mph - N/A   Overcast
11:55 AM 32.0 °F 23.0 °F - N/A% 30.70 in 10.0 mi NNW 11.5 mph - N/A   Overcast
12:15 PM 32.0 °F 23.6 °F - N/A% 30.71 in 10.0 mi North 10.4 mph - N/A   Overcast
12:35 PM 32.0 °F 24.2 °F - N/A% 30.71 in 10.0 mi North 9.2 mph - N/A   Overcast
12:55 PM 32.0 °F 24.2 °F - N/A% 30.70 in 10.0 mi North 9.2 mph - N/A   Overcast
1:15 PM 32.0 °F 24.2 °F - N/A% 30.70 in 10.0 mi NNW 9.2 mph - N/A   Overcast
1:35 PM 32.0 °F 24.2 °F - N/A% 30.69 in 10.0 mi North 9.2 mph - N/A   Overcast
1:55 PM 32.0 °F 24.8 °F - N/A% 30.69 in 10.0 mi NNE 8.1 mph - N/A   Overcast
2:15 PM 32.0 °F 24.2 °F - N/A% 30.68 in 10.0 mi North 9.2 mph - N/A   Overcast
2:35 PM 32.0 °F 26.4 °F - N/A% 30.67 in 10.0 mi North 5.8 mph - N/A   Overcast
2:55 PM 32.0 °F 24.2 °F - N/A% 30.67 in 10.0 mi North 9.2 mph - N/A   Overcast
3:15 PM 32.0 °F 24.8 °F - N/A% 30.66 in 10.0 mi North 8.1 mph - N/A   Overcast
3:35 PM 32.0 °F 24.2 °F - N/A% 30.66 in 10.0 mi NNW 9.2 mph - N/A   Overcast
3:55 PM 33.8 °F 27.0 °F - N/A% 30.65 in 10.0 mi North 8.1 mph - N/A   Overcast
4:15 PM 35.6 °F 28.0 °F - N/A% 30.64 in 10.0 mi NNE 10.4 mph - N/A   Mostly Cloudy
4:35 PM 35.6 °F 29.2 °F - N/A% 30.63 in 10.0 mi North 8.1 mph - N/A   Overcast
4:55 PM 35.6 °F 28.6 °F - N/A% 30.63 in 10.0 mi North 9.2 mph - N/A   Overcast
5:15 PM 35.6 °F 29.9 °F - N/A% 30.62 in 10.0 mi North 6.9 mph - N/A   Overcast
5:35 PM 35.6 °F 28.0 °F - N/A% 30.62 in 10.0 mi North 10.4 mph - N/A   Overcast
5:55 PM 35.6 °F 29.9 °F - N/A% 30.61 in 10.0 mi NNE 6.9 mph - N/A   Mostly Cloudy
6:15 PM 35.6 °F 30.7 °F - N/A% 30.61 in 10.0 mi North 5.8 mph - N/A   Scattered Clouds
6:55 PM 35.6 °F 29.9 °F - N/A% 30.60 in 10.0 mi NNE 6.9 mph - N/A   Clear
7:15 PM 35.6 °F 29.2 °F - N/A% 30.60 in 10.0 mi NNE 8.1 mph - N/A   Clear
7:35 PM 35.6 °F 29.2 °F - N/A% 30.60 in 10.0 mi North 8.1 mph - N/A   Clear
7:55 PM 35.6 °F 31.7 °F - N/A% 30.60 in 10.0 mi North 4.6 mph - N/A   Clear
8:15 PM 35.6 °F 31.7 °F - N/A% 30.60 in 10.0 mi NNE 4.6 mph - N/A   Clear
8:35 PM 33.8 °F 30.8 °F - N/A% 30.60 in 10.0 mi NE 3.5 mph - N/A   Clear
8:55 PM 32.0 °F 28.7 °F - N/A% 30.60 in 10.0 mi NNE 3.5 mph - N/A   Mostly Cloudy
9:15 PM 32.0 °F 27.5 °F - N/A% 30.60 in 10.0 mi ENE 4.6 mph - N/A   Partly Cloudy
9:35 PM 32.0 °F 28.7 °F - N/A% 30.60 in 10.0 mi East 3.5 mph - N/A   Clear
9:55 PM 32.0 °F 28.7 °F - N/A% 30.59 in 10.0 mi East 3.5 mph - N/A   Clear
10:15 PM 32.0 °F - - N/A% 30.59 in 10.0 mi Calm Calm - N/A   Clear
10:35 PM 32.0 °F - - N/A% 30.59 in 10.0 mi Calm Calm - N/A   Clear
10:55 PM 32.0 °F 28.7 °F - N/A% 30.58 in 10.0 mi ENE 3.5 mph - N/A   Clear
11:15 PM 32.0 °F 28.7 °F - N/A% 30.57 in 10.0 mi East 3.5 mph - N/A   Clear
11:35 PM 32.0 °F 28.7 °F - N/A% 30.56 in 10.0 mi ENE 3.5 mph - N/A   Clear
11:55 PM 30.2 °F 26.7 °F - N/A% 30.56 in 10.0 mi ENE 3.5 mph - N/A   Clear